TimeCET,TemperatureF,Dew PointF,Humidity,Sea Level PressureIn,VisibilityMPH,Wind Direction,Wind SpeedMPH,Gust SpeedMPH,PrecipitationIn,Events,Conditions,WindDirDegrees,DateUTC
12:00 AM,42.8,42.8,100,30.36,2.8,NNE,5.8,-,N/A,,Partly Cloudy,30,2012-11-12 23:00:00
12:30 AM,44.6,42.8,93,30.36,2.5,NE,3.5,-,N/A,,Mist,50,2012-11-12 23:30:00
1:00 AM,44,43,97,30.41,2,,2.2,,,,Mist,,2012-11-13 00:00:00
1:00 AM,44.6,42.8,93,30.36,-9999.0,Variable,2.3,-,N/A,,Partly Cloudy,0,2012-11-13 00:00:00
1:30 AM,44.6,42.8,93,30.39,2.2,Calm,Calm,-,N/A,,Partly Cloudy,0,2012-11-13 00:30:00
2:00 AM,44.6,42.8,93,30.39,-9999.0,ENE,2.3,-,N/A,,Partly Cloudy,60,2012-11-13 01:00:00
2:30 AM,44.6,42.8,93,30.39,-9999.0,ESE,4.6,-,N/A,,Scattered Clouds,110,2012-11-13 01:30:00
2:43 AM,42.8,42.8,100,30.39,1.8,NE,3.5,-,N/A,,Partly Cloudy,40,2012-11-13 01:43:00
2:52 AM,42.8,41.0,93,30.39,1.2,NE,4.6,-,N/A,Fog,Partly Cloudy,40,2012-11-13 01:52:00
3:00 AM,42.8,41.0,93,30.39,1.1,NE,4.6,-,N/A,Fog,Mist,40,2012-11-13 02:00:00
3:11 AM,41.0,41.0,100,30.39,1.1,North,4.6,-,N/A,,Mist,360,2012-11-13 02:11:00
3:30 AM,41.0,41.0,100,30.39,1.2,NNE,3.5,-,N/A,,Mist,20,2012-11-13 02:30:00
4:00 AM,42.8,41.0,93,30.39,1.2,ENE,3.5,-,N/A,Fog,Partly Cloudy,70,2012-11-13 03:00:00
4:23 AM,39.2,39.2,100,30.39,0.9,NNE,4.6,-,N/A,Fog,Scattered Clouds,20,2012-11-13 03:23:00
4:30 AM,39.2,39.2,100,30.39,0.9,NNW,5.8,-,N/A,Fog,Mostly Cloudy,330,2012-11-13 03:30:00
4:42 AM,41.0,41.0,100,30.39,1.4,North,4.6,-,N/A,,Mostly Cloudy,350,2012-11-13 03:42:00
5:00 AM,39.2,39.2,100,30.39,1.2,NNW,5.8,-,N/A,Fog,Mostly Cloudy,330,2012-11-13 04:00:00
5:09 AM,41.0,41.0,100,30.39,1.2,NNE,4.6,-,N/A,Fog,Scattered Clouds,30,2012-11-13 04:09:00
5:30 AM,41.0,41.0,100,30.39,1.1,NNW,2.3,-,N/A,Fog,Mostly Cloudy,340,2012-11-13 04:30:00
6:00 AM,41.0,41.0,100,30.39,1.2,ESE,2.3,-,N/A,,Scattered Clouds,110,2012-11-13 05:00:00
6:30 AM,41.0,41.0,100,30.42,1.2,Calm,Calm,-,N/A,,Mostly Cloudy,0,2012-11-13 05:30:00
7:00 AM,42,42,99,30.48,1,,2.2,,,,Mist,,2012-11-13 06:00:00
7:00 AM,42.8,42.8,100,30.45,1.2,Variable,1.2,-,N/A,,Overcast,0,2012-11-13 06:00:00
7:30 AM,42.8,42.8,100,30.45,1.2,Variable,2.3,-,N/A,,Overcast,0,2012-11-13 06:30:00
8:00 AM,44.6,42.8,93,30.45,1.6,North,4.6,-,N/A,,Overcast,360,2012-11-13 07:00:00
8:30 AM,44.6,42.8,93,30.48,1.9,NNE,4.6,-,N/A,,Overcast,30,2012-11-13 07:30:00
9:00 AM,44.6,42.8,93,30.48,2.5,North,6.9,-,N/A,,Overcast,360,2012-11-13 08:00:00
9:30 AM,44.6,42.8,93,30.48,2.5,North,11.5,-,N/A,,Overcast,10,2012-11-13 08:30:00
10:00 AM,46.4,42.8,87,30.48,3.1,North,10.4,-,N/A,,Overcast,360,2012-11-13 09:00:00
10:30 AM,46.4,42.8,87,30.51,3.1,North,9.2,-,N/A,,Overcast,360,2012-11-13 09:30:00
11:00 AM,44.6,42.8,93,30.51,3.1,North,9.2,-,N/A,,Overcast,360,2012-11-13 10:00:00
11:30 AM,46.4,42.8,87,30.51,3.1,North,6.9,-,N/A,,Mostly Cloudy,10,2012-11-13 10:30:00
12:00 PM,46.4,42.8,87,30.48,3.1,North,8.1,-,N/A,,Mostly Cloudy,360,2012-11-13 11:00:00
12:30 PM,46.4,42.8,87,30.48,3.1,North,9.2,-,N/A,,Overcast,350,2012-11-13 11:30:00
1:00 PM,45,42,86,30.53,3,North,6.7,,,,Mist,350,2012-11-13 12:00:00
1:00 PM,44.6,42.8,93,30.48,3.1,North,6.9,-,N/A,,Overcast,350,2012-11-13 12:00:00
1:30 PM,46.4,42.8,87,30.48,3.1,North,6.9,-,N/A,,Overcast,350,2012-11-13 12:30:00
2:00 PM,46.4,41.0,81,30.51,3.1,North,8.1,-,N/A,,Overcast,10,2012-11-13 13:00:00
2:30 PM,44.6,41.0,87,30.51,3.1,North,8.1,-,N/A,,Overcast,360,2012-11-13 13:30:00
3:00 PM,46.4,41.0,81,30.51,3.1,North,5.8,-,N/A,,Mostly Cloudy,10,2012-11-13 14:00:00
3:30 PM,44.6,41.0,87,30.51,3.1,North,5.8,-,N/A,,Mostly Cloudy,10,2012-11-13 14:30:00
4:00 PM,44.6,41.0,87,30.51,3.7,North,6.9,-,N/A,,Unknown,360,2012-11-13 15:00:00
4:30 PM,44.6,41.0,87,30.51,4.3,North,5.8,-,N/A,,Mostly Cloudy,360,2012-11-13 15:30:00
5:00 PM,44.6,41.0,87,30.51,4.3,North,6.9,-,N/A,,Mostly Cloudy,360,2012-11-13 16:00:00
5:30 PM,42.8,41.0,93,30.51,4.3,North,5.8,-,N/A,,Scattered Clouds,360,2012-11-13 16:30:00
6:00 PM,41.0,39.2,93,30.54,4.3,North,6.9,-,N/A,,Mist,360,2012-11-13 17:00:00
6:30 PM,39.2,37.4,93,30.54,4.3,NNE,6.9,-,N/A,,Scattered Clouds,20,2012-11-13 17:30:00
7:00 PM,39,37,88,30.58,4,North,6.7,,,,Mist,10,2012-11-13 18:00:00
7:00 PM,39.2,37.4,93,30.54,4.3,North,6.9,-,N/A,,Scattered Clouds,10,2012-11-13 18:00:00
7:30 PM,39.2,35.6,87,30.54,4.3,NNE,5.8,-,N/A,,Scattered Clouds,20,2012-11-13 18:30:00
8:00 PM,39.2,37.4,93,30.54,4.3,North,6.9,-,N/A,,Mostly Cloudy,10,2012-11-13 19:00:00
8:30 PM,37.4,35.6,93,30.54,4.3,North,6.9,-,N/A,,Mostly Cloudy,10,2012-11-13 19:30:00
9:00 PM,37.4,35.6,93,30.54,4.3,North,5.8,-,N/A,,Partly Cloudy,10,2012-11-13 20:00:00
9:30 PM,37.4,33.8,87,30.54,3.7,NE,4.6,-,N/A,,Unknown,40,2012-11-13 20:30:00
10:00 PM,37.4,33.8,87,30.54,3.7,ENE,4.6,-,N/A,,Unknown,60,2012-11-13 21:00:00
10:30 PM,37.4,35.6,93,30.54,3.7,NE,3.5,-,N/A,,Unknown,40,2012-11-13 21:30:00
11:00 PM,37.4,33.8,87,30.54,2.5,Variable,2.3,-,N/A,,Mist,0,2012-11-13 22:00:00
11:30 PM,37.4,33.8,87,30.54,2.5,ENE,3.5,-,N/A,,Mist,70,2012-11-13 22:30:00